Tracking 30743 objects as of 23-Jun-2025
HD Live streaming from Space Station
objects crossing your sky now

COSMOS 1691 DEB

Track COSMOS 1691 DEB now!
10-day predictions


NORAD ID: 17168
Int'l Code: 1985-094S
Perigee: 1,187.7 km
Apogee: 1,254.1 km
Inclination: 82.5 °
Period: 109.7 minutes
Semi major axis: 7591 km
RCS: 0.0357 m2 (small)
Launch date: October 9, 1985
Source: Commonwealth of Independent States (former USSR) (CIS)
Launch site: PLESETSK MISSILE AND SPACE COMPLEX (PKMTR)

Note: This is SATELLITE DEBRIS
Your satellite tracking list
Your tracking list is empty




NASA's NSSDC Master Catalog

Two Line Element Set (TLE):
1 17168U 85094S   25173.91444361  .00001441  00000-0  39540-2 0  9992
2 17168  82.5472  56.2732 0043779 304.4486  72.2384 13.12430658856263
Source of the keplerian elements: AFSPC